[[{"header":{"parameterUnit":"m.s-1","parameterCategory":2,"la1":30.2991,"la2":30.254,"lo1":-89.0895,"lo2":-89.0444,"dy":0.0017,"dx":0.0017,"nx":28,"ny":28,"refTime":"2024-05-20T03:00:00:Z","depth":"0","parameterNumber":2,"parameterNumberName":"U-component_of_CURRENTS"},"data":[0,0,0,0,0,0,0,0,0,0,0,0,0,0,0,0,0,0,0,0,0,0,0,0,0,0,0,0,0,0,0,0,0,0,0,0,0,0,0,0,0,0,0,0,0,0,0,0,0,0,0,0,0,0,0,0,0,0,0.2796,0.2797,0,0.2855,0.2855,0.2856,0.2797,0.2795,0.2792,0.279,0.279,0.2791,0.2793,0,0,0,0,0,0,0,0,0,0,0,0,0,0.2685,0.2687,0.2796,0.2797,0.2798,0.2855,0.2855,0.2856,0.2797,0.2795,0.2792,0.2789,0.2789,0.2791,0.2794,0,0,0,0,0,0,0,0,0,0,0,0,0,0.2736,0.2688,0.2796,0.2776,0.2775,0.2854,0.2855,0.2856,0.2798,0.2794,0.2791,0.2788,0.2788,0.2791,0.2794,0.2877,0,0,0.2803,0.2804,0,0,0,0,0,0,0,0,0.2733,0.274,0.2778,0.2778,0.2777,0.2817,0.2816,0.2861,0.2799,0.2787,0.279,0.2787,0.2797,0.2799,0.2815,0.2877,0.2877,0.2803,0.2805,0.2806,0.2807,0,0,0,0,0,0,0,0.273,0.2737,0.2817,0.278,0.2779,0.2783,0.2786,0.2825,0.2807,0.2788,0.2784,0.2795,0.2795,0.2813,0.2815,0.2877,0.2803,0.2806,0.2808,0.2809,0.2981,0.2984,0,0,0,0,0,0,0.2727,0.2734,0.2815,0.2819,0.2749,0.2788,0.2791,0.2806,0.2808,0.2806,0.2798,0.2792,0.2809,0.2811,0.2814,0.2896,0.2806,0.2809,0.2811,0.2978,0.2982,0.2985,0,0,0,0,0,0,0.2725,0.2734,0.2813,0.2779,0.2789,0.2793,0.281,0.2809,0.2826,0.2816,0.2812,0.2816,0.2807,0.281,0.2856,0.2896,0.281,0.2813,0.2975,0.2979,0.2983,0.307,0,0,0,0,0,0,0.2722,0.2733,0.2759,0.2779,0.2791,0.2869,0.2813,0.2812,0.2838,0.2831,0.2831,0.2827,0.2804,0.2852,0.2859,0.2898,0.2816,0.2972,0.2977,0.2982,0.3064,0.3077,0.3088,0,0,0,0,0,0.2717,0.2771,0.276,0.2771,0.2822,0.2872,0.2879,0.2869,0.2842,0.2869,0.2864,0.2827,0.2889,0.2858,0.2865,0.2906,0.2969,0.2975,0.2982,0.3059,0.3075,0.3088,0,0,0,0,0,0,0.2754,0.2771,0.2759,0.2819,0.2844,0.2862,0.2897,0.2888,0.291,0.29,0.2874,0.2873,0.2932,0.2917,0.2883,0.2972,0.2921,0.2929,0.2977,0.2992,0.3004,0.3012,0.2818,0,0,0,0,0,0.2773,0.28,0.2822,0.2869,0.2886,0.2895,0.2919,0.2912,0.2928,0.2933,0.293,0.2936,0.2971,0.2975,0.3004,0.306,0.3063,0.3089,0.3101,0.3111,0.3126,0.3181,0.3199,0.3005,0.3005,0.3005,0,0,0.2798,0.2814,0.2829,0.2877,0.2894,0.2932,0.2901,0.2946,0.2974,0.2935,0.2978,0.2992,0.3001,0.3057,0.308,0.3042,0.3169,0.3119,0.3128,0.3137,0.319,0.3208,0.3225,0.301,0.3009,0.3008,0,0,0.285,0.2879,0.2908,0.2936,0.297,0.2982,0.2998,0.3024,0.3033,0.3089,0.3068,0.311,0.3147,0.3161,0.3173,0.3278,0.3245,0.3279,0.3332,0.3386,0.3402,0.3416,0.3442,0.3458,0.3268,0.3268,0.3268,0,0.2882,0.2912,0.2931,0.2968,0.2994,0.3004,0.3042,0.3077,0.311,0.3131,0.311,0.3195,0.3202,0.3274,0.3302,0.3306,0.3317,0.327,0.3401,0.3415,0.3428,0.3451,0.3468,0.3273,0.3272,0.3272,0.3271,0,0.2936,0.297,0.3001,0.3034,0.3076,0.3118,0.3154,0.3193,0.3205,0.3226,0.3306,0.3332,0.3369,0.3387,0.3377,0.3473,0.3445,0.3421,0.3359,0.3453,0.3471,0.3487,0.328,0.3278,0.3277,0.3275,0,0,0.2963,0.3022,0.3027,0.3041,0.3108,0.3139,0.3212,0.327,0.3305,0.336,0.3414,0.3495,0.35,0.3518,0.3518,0.3563,0.3666,0.353,0.3531,0.3547,0.3771,0.3643,0.3647,0.366,0.3663,0.3666,0.3745,0,0.2987,0.3046,0.3077,0.3135,0.3166,0.321,0.3273,0.3333,0.3377,0.3437,0.3495,0.3559,0.3552,0.3574,0.3629,0.3661,0.3712,0.3646,0.3685,0.3686,0.3554,0.3662,0.3444,0.3486,0.3759,0.3762,0.3764,0,0.3004,0.3041,0.3098,0.316,0.318,0.3224,0.3304,0.3359,0.3459,0.3499,0.3577,0.362,0.372,0.3692,0.381,0.3765,0.3786,0.3804,0.3807,0.3668,0.3588,0.3439,0.3503,0.3395,0.3787,0.3785,0.3783,0,0.2969,0.3044,0.3081,0.3107,0.3196,0.3231,0.3276,0.3371,0.3431,0.3536,0.3594,0.3703,0.3757,0.3831,0.3884,0.3855,0.3993,0.3949,0.3859,0.3849,0.3661,0.3628,0.3614,0.4045,0.4045,0.4045,0.4045,0,0.2969,0.2995,0.3063,0.3086,0.3137,0.3204,0.3272,0.3332,0.3444,0.3514,0.3616,0.3692,0.3798,0.3885,0.3923,0.394,0.403,0.3897,0.3875,0.3683,0.3653,0.3545,0.3513,0.4048,0.4047,0.4047,0.4046,0,0.2928,0.2973,0.3014,0.3096,0.312,0.3152,0.3262,0.3315,0.3421,0.3517,0.3565,0.371,0.3804,0.3898,0.4002,0.3964,0.3877,0.399,0.3744,0.3691,0.3449,0.343,0.3301,0.3216,0.389,0.3888,0.3886,0,0.2913,0.2931,0.3,0.3024,0.3061,0.3122,0.3172,0.3286,0.3347,0.3516,0.356,0.3696,0.3755,0.3859,0.3827,0.3859,0.3797,0.3666,0.357,0.3428,0.3393,0.3287,0.3219,0.3364,0.3357,0.3352,0.3348,0,0.2887,0.2907,0.294,0.2986,0.3028,0.3082,0.3155,0.3209,0.3337,0.3409,0.3504,0.3569,0.3635,0.3543,0.3568,0.3566,0.3442,0.3558,0.3488,0.3051,0.2859,0.2767,0.3315,0.3303,0.3308,0.3311,0.3313,0.3315,0.2854,0.286,0.2898,0.2929,0.2975,0.3017,0.3011,0.3093,0.3153,0.3198,0.3356,0.3336,0.3303,0.3279,0.3261,0.3045,0.3113,0.2918,0.2932,0.2857,0.2689,0.3123,0.3032,0.3034,0.3037,0.3039,0.3041,0,0.2792,0.2806,0.284,0.2852,0.2848,0.2913,0.2968,0.2926,0.2903,0.2985,0.3014,0.2927,0.2809,0.2779,0.258,0.2436,0.235,0.2377,0.2196,0.2184,0.2631,0.2518,0.2214,0.2214,0.2214,0.2214,0.2215,0.2215,0.2759,0.275,0.2755,0.2707,0.2712,0.2654,0.2647,0.2598,0.2611,0.2506,0.2415,0.2437,0.2424,0.2268,0.2064,0.2018,0.1891,0.174,0.184,0.216,0.2211,0.2261,0.2148,0.1771,0.1771,0.1251,0.1247,0.1244]},{"header":{"parameterUnit":"m.s-1","parameterCategory":2,"la1":30.2991,"la2":30.254,"lo1":-89.0895,"lo2":-89.0444,"dy":0.0017,"dx":0.0017,"nx":28,"ny":28,"refTime":"2024-05-20T03:00:00:Z","depth":"0","parameterNumber":3,"parameterNumberName":"V-component_of_CURRENTS"},"data":[0,0,0,0,0,0,0,0,0,0,0,0,0,0,0,0,0,0,0,0,0,0,0,0,0,0,0,0,0,0,0,0,0,0,0,0,0,0,0,0,0,0,0,0,0,0,0,0,0,0,0,0,0,0,0,0,0,0,0.0312,0.0312,0,0.0308,0.0308,0.0308,0.028,0.028,0.0279,0.0279,0.0242,0.0241,0.0241,0,0,0,0,0,0,0,0,0,0,0,0,0,0.0274,0.0274,0.0312,0.0312,0.0312,0.0308,0.0308,0.0308,0.028,0.028,0.0279,0.0278,0.0242,0.0241,0.0241,0,0,0,0,0,0,0,0,0,0,0,0,0,0.0281,0.0275,0.0312,0.0299,0.0298,0.0308,0.0308,0.0307,0.028,0.028,0.0279,0.0278,0.0242,0.0241,0.0241,0.0252,0,0,0.0238,0.0238,0,0,0,0,0,0,0,0,0.028,0.0282,0.0301,0.03,0.0299,0.0295,0.0281,0.0288,0.0281,0.0285,0.0279,0.0278,0.0258,0.0256,0.0255,0.025,0.0248,0.0238,0.0238,0.0237,0.0237,0,0,0,0,0,0,0,0.028,0.0282,0.0309,0.0301,0.03,0.0286,0.0286,0.0282,0.0274,0.0285,0.0283,0.0286,0.0257,0.0256,0.0254,0.0248,0.0238,0.0238,0.0237,0.0237,0.0251,0.0252,0,0,0,0,0,0,0.0286,0.0282,0.0309,0.0309,0.0289,0.0288,0.0288,0.0296,0.0275,0.0272,0.0286,0.0284,0.0258,0.0255,0.0253,0.0287,0.0237,0.0237,0.0236,0.0251,0.0252,0.0253,0,0,0,0,0,0,0.0285,0.0288,0.0309,0.0296,0.0297,0.029,0.0299,0.0296,0.0299,0.0277,0.0272,0.0292,0.0257,0.0254,0.0255,0.0284,0.0236,0.0236,0.025,0.0251,0.0252,0.0341,0,0,0,0,0,0,0.0284,0.0288,0.0297,0.0296,0.0299,0.0325,0.0299,0.0297,0.0302,0.03,0.0281,0.0276,0.0256,0.0256,0.0254,0.0282,0.0235,0.0249,0.025,0.0252,0.0337,0.0345,0.0352,0,0,0,0,0,0.0283,0.0305,0.0298,0.0301,0.0311,0.0327,0.0327,0.0316,0.0303,0.0314,0.0297,0.0277,0.0264,0.0257,0.0254,0.0282,0.0248,0.025,0.0252,0.0333,0.0343,0.0352,0,0,0,0,0,0,0.0294,0.0304,0.0297,0.032,0.0326,0.0323,0.0334,0.0325,0.0321,0.0316,0.0289,0.0284,0.0296,0.0275,0.0267,0.0289,0.0252,0.0254,0.0316,0.0325,0.0332,0.0361,0.0234,0,0,0,0,0,0.0302,0.0319,0.0323,0.0342,0.0347,0.0341,0.0345,0.0339,0.0335,0.0333,0.0316,0.0301,0.0302,0.0301,0.0292,0.0307,0.0292,0.0322,0.033,0.0336,0.0357,0.0364,0.0375,0.0259,0.0259,0.0259,0,0,0.0309,0.0319,0.0327,0.0345,0.0347,0.037,0.0342,0.0357,0.0377,0.033,0.0346,0.0327,0.0311,0.0328,0.0331,0.0314,0.0357,0.0339,0.0345,0.0362,0.0367,0.0379,0.0389,0.026,0.026,0.026,0,0,0.034,0.0345,0.037,0.0381,0.0394,0.0395,0.0403,0.0402,0.0404,0.0419,0.0391,0.0395,0.0385,0.0387,0.0387,0.0431,0.0395,0.0418,0.0485,0.0492,0.0502,0.0511,0.0492,0.0498,0.0424,0.0424,0.0424,0,0.0347,0.0383,0.0379,0.0409,0.0427,0.0411,0.0444,0.045,0.0448,0.0462,0.0435,0.0446,0.0423,0.0466,0.0474,0.0453,0.0436,0.0455,0.0504,0.0513,0.052,0.0498,0.0504,0.0429,0.0428,0.0428,0.0427,0,0.0398,0.0426,0.0445,0.0478,0.0495,0.0523,0.0531,0.0545,0.0542,0.0546,0.0578,0.0554,0.0565,0.0555,0.0528,0.0575,0.0537,0.0512,0.0486,0.0538,0.051,0.0515,0.0435,0.0434,0.0432,0.0431,0,0,0.042,0.0471,0.0479,0.0509,0.0536,0.056,0.0599,0.0637,0.0674,0.0669,0.0725,0.0718,0.0703,0.0702,0.0671,0.0673,0.0697,0.0618,0.0616,0.0608,0.0693,0.0661,0.0662,0.0678,0.068,0.0681,0.0647,0,0.0462,0.0533,0.0547,0.0615,0.0652,0.0659,0.0702,0.0731,0.0746,0.079,0.0789,0.0821,0.0761,0.0772,0.0769,0.0722,0.0716,0.0707,0.0637,0.0634,0.0609,0.067,0.0658,0.0628,0.0651,0.0652,0.0653,0,0.0511,0.0556,0.0628,0.0696,0.0713,0.0749,0.0819,0.0856,0.0907,0.0921,0.0954,0.0945,0.0969,0.0903,0.0867,0.0862,0.0789,0.074,0.0738,0.0687,0.0614,0.0582,0.0635,0.0549,0.0659,0.0659,0.0658,0,0.0541,0.0615,0.0678,0.0701,0.077,0.0808,0.0846,0.0896,0.0951,0.101,0.1059,0.1067,0.1085,0.1023,0.0928,0.0897,0.0875,0.0817,0.0719,0.0714,0.0683,0.0673,0.0657,0.0791,0.0791,0.0791,0.0791,0,0.059,0.0643,0.0698,0.0738,0.0823,0.0849,0.094,0.0977,0.1052,0.1146,0.1132,0.1211,0.1115,0.1092,0.0983,0.0882,0.0918,0.0753,0.072,0.0709,0.0703,0.0607,0.0546,0.079,0.079,0.079,0.079,0,0.0621,0.0655,0.0734,0.0812,0.0841,0.0902,0.1006,0.1078,0.1131,0.1257,0.129,0.1322,0.1299,0.119,0.1085,0.0955,0.0799,0.0801,0.0783,0.075,0.0564,0.0509,0.0454,0.0417,0.0689,0.0689,0.0688,0,0.065,0.0693,0.0786,0.084,0.0881,0.097,0.1043,0.1115,0.1202,0.1343,0.1423,0.1436,0.1484,0.1316,0.1098,0.091,0.08,0.0735,0.0679,0.058,0.0493,0.0457,0.0428,0.0657,0.0656,0.0655,0.0655,0,0.0711,0.0736,0.0801,0.0904,0.0986,0.1087,0.1197,0.1278,0.139,0.1503,0.1646,0.1697,0.155,0.137,0.109,0.0947,0.0676,0.0714,0.063,0.0496,0.044,0.038,0.0631,0.0649,0.0649,0.065,0.065,0.065,0.0755,0.0805,0.0882,0.0979,0.1077,0.1202,0.1293,0.1424,0.1582,0.1762,0.1797,0.1886,0.1597,0.1235,0.1037,0.0634,0.064,0.049,0.0437,0.0415,0.0375,0.0606,0.0576,0.0576,0.0576,0.0576,0.0576,0,0.0808,0.0864,0.0959,0.1076,0.1181,0.1226,0.1399,0.1502,0.1691,0.1856,0.1975,0.1867,0.1538,0.1178,0.0626,0.0386,0.0317,0.0265,0.0219,0.0205,0.0429,0.0423,0.0337,0.0337,0.0337,0.0337,0.0337,0.0337,0.0841,0.0926,0.0967,0.1138,0.1226,0.1376,0.1474,0.1633,0.1772,0.1944,0.1981,0.1984,0.1684,0.0825,0.028,0.0163,0.0028,-0.0013,-0.0063,0.0083,0.01,0.0117,0.01,-0.0052,-0.0053,-0.0253,-0.0255,-0.0257]}],[{"header":{"parameterUnit":"m.s-1","parameterCategory":2,"la1":30.2991,"la2":30.254,"lo1":-89.0895,"lo2":-89.0444,"dy":0.0017,"dx":0.0017,"nx":28,"ny":28,"refTime":"2024-05-20T03:00:00:Z","depth":"2","parameterNumber":2,"parameterNumberName":"U-component_of_CURRENTS"},"data":[0,0,0,0,0,0,0,0,0,0,0,0,0,0,0,0,0,0,0,0,0,0,0,0,0,0,0,0,0,0,0,0,0,0,0,0,0,0,0,0,0,0,0,0,0,0,0,0,0,0,0,0,0,0,0,0,0,0,0.2247,0.2248,0,0.2293,0.2294,0.2294,0.2291,0.229,0.2289,0.2288,0.2295,0.2296,0.2297,0,0,0,0,0,0,0,0,0,0,0,0,0,0.2229,0.2229,0.2247,0.2248,0.2248,0.2293,0.2294,0.2295,0.2291,0.229,0.2288,0.2287,0.2295,0.2296,0.2297,0,0,0,0,0,0,0,0,0,0,0,0,0,0.2255,0.2229,0.2247,0.2249,0.225,0.2293,0.2294,0.2295,0.2291,0.229,0.2288,0.2287,0.2294,0.2296,0.2297,0.2337,0,0,0.2302,0.2303,0,0,0,0,0,0,0,0,0.2253,0.2256,0.2249,0.2249,0.225,0.2282,0.229,0.2306,0.2291,0.2279,0.2288,0.2286,0.2286,0.2288,0.2305,0.2337,0.2337,0.2302,0.2303,0.2304,0.2305,0,0,0,0,0,0,0,0.2252,0.2254,0.2269,0.2249,0.225,0.2272,0.2274,0.2294,0.2292,0.228,0.2279,0.2279,0.2286,0.2304,0.2305,0.2337,0.2302,0.2304,0.2305,0.2306,0.2405,0.2406,0,0,0,0,0,0,0.2238,0.2252,0.2267,0.227,0.2244,0.2273,0.2275,0.2275,0.2292,0.2293,0.228,0.2279,0.2301,0.2303,0.2305,0.2367,0.2304,0.2306,0.2307,0.2403,0.2405,0.2407,0,0,0,0,0,0,0.2237,0.2239,0.2265,0.226,0.2264,0.2274,0.2275,0.2277,0.2301,0.2293,0.2293,0.2302,0.23,0.2303,0.2331,0.2366,0.2306,0.2308,0.2401,0.2404,0.2406,0.2481,0,0,0,0,0,0,0.2236,0.2238,0.2252,0.2259,0.2264,0.2296,0.2276,0.2279,0.2302,0.23,0.2312,0.231,0.2299,0.2329,0.2333,0.2367,0.2309,0.2399,0.2402,0.2405,0.2476,0.2485,0.2493,0,0,0,0,0,0.2236,0.2255,0.2252,0.2255,0.2276,0.2296,0.2303,0.2307,0.2304,0.2323,0.2329,0.231,0.2351,0.2332,0.2336,0.2372,0.2398,0.2401,0.2405,0.2472,0.2483,0.2493,0,0,0,0,0,0,0.2253,0.2256,0.2253,0.2272,0.2285,0.2294,0.2321,0.232,0.2344,0.2349,0.2336,0.2336,0.238,0.2365,0.2345,0.2409,0.237,0.2375,0.242,0.2431,0.2439,0.245,0.2311,0,0,0,0,0,0.2263,0.2275,0.2281,0.2295,0.2311,0.2321,0.2337,0.2338,0.235,0.236,0.2363,0.2374,0.2401,0.2405,0.2425,0.2458,0.246,0.2483,0.2491,0.2499,0.2511,0.2561,0.2575,0.2419,0.2419,0.2419,0,0,0.2274,0.2275,0.2283,0.23,0.2318,0.2339,0.2329,0.2358,0.2372,0.2359,0.2392,0.2414,0.242,0.2462,0.2478,0.245,0.2541,0.2503,0.251,0.2518,0.2566,0.2582,0.2595,0.2422,0.2421,0.2421,0,0,0.229,0.2307,0.2324,0.2338,0.236,0.237,0.238,0.2401,0.2415,0.2447,0.2451,0.249,0.2511,0.2531,0.2541,0.261,0.2596,0.2615,0.2657,0.2706,0.2719,0.2731,0.2739,0.2751,0.2606,0.2606,0.2606,0,0.2309,0.2315,0.2334,0.2351,0.2365,0.2383,0.2405,0.2429,0.2451,0.2475,0.2461,0.2541,0.2545,0.261,0.2634,0.2631,0.2644,0.2616,0.2718,0.273,0.2741,0.2746,0.2758,0.261,0.261,0.2609,0.2609,0,0.2325,0.2341,0.2358,0.238,0.2404,0.2429,0.2455,0.2489,0.2507,0.2526,0.26,0.2623,0.2666,0.268,0.2678,0.2765,0.2745,0.2734,0.2692,0.2761,0.2762,0.2773,0.2616,0.2615,0.2613,0.2612,0,0,0.2334,0.2364,0.2368,0.238,0.242,0.2437,0.2487,0.2534,0.2569,0.2614,0.2661,0.2733,0.2761,0.2777,0.2793,0.2834,0.2917,0.2821,0.2822,0.2829,0.3009,0.2897,0.2897,0.2933,0.2936,0.2939,0.2973,0,0.2342,0.2364,0.2381,0.2413,0.2436,0.2473,0.2514,0.2564,0.2604,0.2656,0.2718,0.2772,0.2792,0.2821,0.2878,0.2921,0.2955,0.2908,0.2941,0.2941,0.2834,0.291,0.2668,0.2671,0.2984,0.2986,0.2987,0,0.2342,0.2359,0.2386,0.2428,0.2445,0.2475,0.2546,0.2582,0.267,0.2708,0.2791,0.2824,0.2924,0.2907,0.3032,0.3007,0.3019,0.3035,0.3036,0.2916,0.2851,0.2656,0.268,0.3006,0.3004,0.3003,0.3001,0,0.2318,0.2358,0.2375,0.2389,0.2448,0.2484,0.2527,0.2609,0.2661,0.2748,0.2803,0.2902,0.2974,0.3028,0.3082,0.3066,0.3187,0.3156,0.3059,0.3049,0.284,0.2807,0.3223,0.3223,0.3223,0.3223,0.3223,0,0.2303,0.2324,0.2371,0.2383,0.2425,0.2478,0.2538,0.2597,0.2698,0.2758,0.2841,0.2905,0.3018,0.309,0.3106,0.3131,0.3213,0.3084,0.3065,0.2855,0.2825,0.3111,0.3098,0.3224,0.3224,0.3224,0.3224,0,0.2272,0.23,0.2327,0.239,0.2412,0.2448,0.2548,0.2594,0.2706,0.2787,0.2824,0.296,0.3046,0.3118,0.3197,0.3164,0.3176,0.3149,0.2877,0.2825,0.299,0.298,0.3042,0.3038,0.3035,0.3033,0.3031,0,0.2253,0.2254,0.2315,0.2332,0.2366,0.2427,0.2468,0.2583,0.2618,0.2799,0.2819,0.296,0.2987,0.3074,0.3039,0.3027,0.3126,0.2786,0.2706,0.3004,0.298,0.2974,0.2968,0.2452,0.2446,0.244,0.2436,0,0.2213,0.2236,0.2261,0.2289,0.233,0.2358,0.2417,0.246,0.2581,0.2661,0.2742,0.279,0.2868,0.2745,0.275,0.271,0.2767,0.2673,0.3085,0.2531,0.245,0.2425,0.2439,0.2388,0.2393,0.2396,0.2399,0.2401,0.2177,0.2184,0.2208,0.2226,0.2258,0.2262,0.2259,0.2306,0.2352,0.2412,0.2543,0.2532,0.2551,0.2419,0.2337,0.2291,0.2481,0.2366,0.2382,0.2404,0.2326,0.2243,0.2126,0.2129,0.2132,0.2134,0.2137,0,0.2104,0.2126,0.2138,0.2145,0.2121,0.2179,0.2187,0.214,0.2119,0.2192,0.2215,0.2037,0.1943,0.199,0.1828,0.1801,0.1785,0.1738,0.1703,0.1752,0.1795,0.1686,0.1317,0.1314,0.1312,0.1309,0,0,0.2079,0.2062,0.206,0.1991,0.1996,0.1932,0.1913,0.1858,0.1843,0.1777,0.175,0.1862,0.1926,0.1601,0.1547,0.1408,0.1572,0.1349,0.201,0.202,0.206,0.2163,0.2049,0,0,0,0,0]},{"header":{"parameterUnit":"m.s-1","parameterCategory":2,"la1":30.2991,"la2":30.254,"lo1":-89.0895,"lo2":-89.0444,"dy":0.0017,"dx":0.0017,"nx":28,"ny":28,"refTime":"2024-05-20T03:00:00:Z","depth":"2","parameterNumber":3,"parameterNumberName":"V-component_of_CURRENTS"},"data":[0,0,0,0,0,0,0,0,0,0,0,0,0,0,0,0,0,0,0,0,0,0,0,0,0,0,0,0,0,0,0,0,0,0,0,0,0,0,0,0,0,0,0,0,0,0,0,0,0,0,0,0,0,0,0,0,0,0,0.0114,0.0114,0,0.0112,0.0112,0.0112,0.0102,0.0102,0.0102,0.0101,0.0075,0.0074,0.0074,0,0,0,0,0,0,0,0,0,0,0,0,0,0.0097,0.0097,0.0114,0.0114,0.0114,0.0112,0.0112,0.0112,0.0102,0.0102,0.0101,0.0101,0.0075,0.0074,0.0074,0,0,0,0,0,0,0,0,0,0,0,0,0,0.01,0.0097,0.0114,0.0109,0.0108,0.0112,0.0112,0.0112,0.0102,0.0102,0.0101,0.0101,0.0075,0.0074,0.0074,0.0076,0,0,0.0071,0.0071,0,0,0,0,0,0,0,0,0.01,0.0101,0.0109,0.0109,0.0109,0.0107,0.0096,0.0099,0.0102,0.0104,0.0101,0.0101,0.0084,0.0082,0.0083,0.0074,0.0073,0.0071,0.0071,0.007,0.007,0,0,0,0,0,0,0,0.01,0.0101,0.0113,0.0109,0.0109,0.0103,0.0103,0.0097,0.0095,0.0104,0.0103,0.0104,0.0083,0.0083,0.0082,0.0073,0.0071,0.0071,0.007,0.007,0.0066,0.0066,0,0,0,0,0,0,0.0102,0.0101,0.0113,0.0113,0.0104,0.0103,0.0104,0.0108,0.0096,0.0094,0.0104,0.0103,0.0085,0.0083,0.0081,0.0095,0.007,0.007,0.0069,0.0066,0.0066,0.0066,0,0,0,0,0,0,0.0101,0.0103,0.0113,0.0107,0.0107,0.0104,0.0109,0.0108,0.0111,0.0096,0.0094,0.0108,0.0084,0.0082,0.008,0.0094,0.0069,0.0069,0.0065,0.0066,0.0066,0.0116,0,0,0,0,0,0,0.0101,0.0103,0.0106,0.0107,0.0108,0.0122,0.0109,0.0108,0.0111,0.0111,0.0099,0.0096,0.0084,0.0081,0.0079,0.0092,0.0068,0.0065,0.0065,0.0066,0.0114,0.0118,0.0122,0,0,0,0,0,0.01,0.0112,0.0107,0.0108,0.0113,0.0122,0.0122,0.0118,0.0112,0.0118,0.0108,0.0096,0.0083,0.0081,0.0078,0.0092,0.0064,0.0065,0.0066,0.0112,0.0117,0.0122,0,0,0,0,0,0,0.0106,0.0112,0.0106,0.0118,0.0121,0.0121,0.0128,0.0123,0.012,0.0119,0.0102,0.0099,0.0101,0.0088,0.0085,0.0091,0.0072,0.0072,0.0107,0.0112,0.0116,0.0131,0.0067,0,0,0,0,0,0.0108,0.012,0.012,0.013,0.0134,0.013,0.0133,0.0131,0.0129,0.0128,0.0118,0.0108,0.0102,0.0101,0.0092,0.0097,0.0082,0.0103,0.0107,0.0111,0.0121,0.0114,0.0119,0.0069,0.0069,0.0069,0,0,0.0113,0.0118,0.0124,0.0132,0.0135,0.0149,0.0132,0.0142,0.0154,0.0125,0.0137,0.0121,0.0106,0.0111,0.0112,0.0103,0.0114,0.0112,0.0115,0.0123,0.0116,0.0121,0.0125,0.007,0.007,0.0069,0,0,0.0134,0.0134,0.0152,0.0158,0.0166,0.0165,0.017,0.0172,0.0172,0.0178,0.0161,0.0156,0.0146,0.0142,0.0137,0.0158,0.0133,0.0151,0.0188,0.0181,0.0186,0.0189,0.0165,0.0166,0.0156,0.0156,0.0156,0,0.0139,0.0162,0.0158,0.0178,0.0191,0.0176,0.02,0.0199,0.0199,0.0205,0.0187,0.0182,0.0163,0.0178,0.0181,0.0168,0.0154,0.0173,0.0188,0.0191,0.0194,0.0168,0.0169,0.0158,0.0158,0.0158,0.0157,0,0.0176,0.0193,0.0207,0.0228,0.0239,0.0258,0.0257,0.0265,0.0259,0.0256,0.0264,0.024,0.024,0.0229,0.021,0.0226,0.0204,0.0192,0.0179,0.0202,0.0173,0.0173,0.0162,0.0161,0.016,0.0159,0,0,0.0196,0.0226,0.0233,0.0255,0.0269,0.0287,0.0305,0.0324,0.0345,0.0328,0.0355,0.0332,0.0318,0.0311,0.0288,0.0277,0.0273,0.0246,0.0245,0.0228,0.0247,0.0221,0.0218,0.0266,0.0266,0.0267,0.0215,0,0.0228,0.0278,0.0284,0.0333,0.0361,0.0359,0.0382,0.0394,0.0393,0.0411,0.0385,0.0396,0.035,0.0354,0.0337,0.0298,0.0277,0.0287,0.0223,0.0221,0.02,0.0219,0.0233,0.0188,0.0214,0.0214,0.0214,0,0.0268,0.0298,0.0352,0.0398,0.0411,0.0436,0.0479,0.0498,0.0508,0.0508,0.0508,0.0484,0.0475,0.0428,0.0373,0.0382,0.0319,0.0276,0.0273,0.0235,0.0195,0.0171,0.0187,0.0214,0.0214,0.0214,0.0214,0,0.03,0.0349,0.0398,0.0414,0.0457,0.0486,0.0511,0.0532,0.0567,0.0577,0.0605,0.0569,0.0579,0.0499,0.0407,0.0393,0.0336,0.0304,0.0216,0.0212,0.0205,0.0201,0.0256,0.0256,0.0256,0.0256,0.0256,0,0.034,0.038,0.042,0.0451,0.0516,0.0531,0.0597,0.0614,0.0653,0.0713,0.0666,0.0704,0.0601,0.0554,0.044,0.0337,0.0362,0.0228,0.0205,0.022,0.0218,0.0227,0.0224,0.0254,0.0255,0.0255,0.0255,0,0.037,0.0394,0.0456,0.0512,0.0535,0.0586,0.0664,0.0713,0.0742,0.0822,0.0836,0.0822,0.0764,0.0638,0.0515,0.0401,0.0285,0.0233,0.0249,0.0229,0.0149,0.015,0.013,0.0129,0.0128,0.0127,0.0126,0,0.0391,0.0424,0.0503,0.0548,0.0579,0.0651,0.0707,0.0755,0.0815,0.09,0.0949,0.0923,0.0908,0.0712,0.0513,0.0312,0.0284,0.018,0.0151,0.0161,0.014,0.0142,0.0144,0.0152,0.0152,0.0151,0.0151,0,0.0432,0.0458,0.0511,0.0599,0.0669,0.0748,0.0832,0.0898,0.0972,0.1045,0.1124,0.1119,0.0948,0.0762,0.049,0.0345,0.0211,0.0165,0.0191,0.0183,0.0178,0.0159,0.0161,0.0148,0.0148,0.0149,0.0149,0.0149,0.0462,0.0504,0.0573,0.0658,0.0738,0.0839,0.0912,0.1008,0.1122,0.1225,0.1224,0.1214,0.1009,0.0661,0.0438,0.0197,0.0199,0.0095,0.0098,0.0101,0.0114,0.0109,0.0066,0.0066,0.0066,0.0066,0.0065,0,0.05,0.055,0.0627,0.0731,0.0816,0.0857,0.0992,0.1062,0.1199,0.1275,0.132,0.112,0.0923,0.0687,0.034,0.0124,0.0108,0.0045,0.0081,0.0085,0.0089,0.0102,0.005,0.005,0.0049,0.0049,0,0,0.0524,0.0598,0.0635,0.0775,0.0851,0.0971,0.1051,0.1155,0.123,0.1289,0.1285,0.1244,0.0984,0.0727,0.0449,0.0258,0.0214,0.0206,0.0238,0.0317,0.0323,0.0133,0.0161,0,0,0,0,0]}],[{"header":{"parameterUnit":"m.s-1","parameterCategory":2,"la1":30.2991,"la2":30.254,"lo1":-89.0895,"lo2":-89.0444,"dy":0.0017,"dx":0.0017,"nx":28,"ny":28,"refTime":"2024-05-20T03:00:00:Z","depth":"4","parameterNumber":2,"parameterNumberName":"U-component_of_CURRENTS"},"data":[0,0,0,0,0,0,0,0,0,0,0,0,0,0,0,0,0,0,0,0,0,0,0,0,0,0,0,0,0,0,0,0,0,0,0,0,0,0,0,0,0,0,0,0,0,0,0,0,0,0,0,0,0,0,0,0,0,0,0.1368,0.1369,0,0.1363,0.1363,0.1362,0.1384,0.1385,0.1386,0.1387,0.1423,0.1423,0.1423,0,0,0,0,0,0,0,0,0,0,0,0,0,0.1357,0.1357,0.1368,0.1369,0.1369,0.1363,0.1363,0.1362,0.1384,0.1385,0.1387,0.1388,0.1423,0.1423,0.1423,0,0,0,0,0,0,0,0,0,0,0,0,0,0.1355,0.1357,0.1368,0.1382,0.1383,0.1363,0.1363,0.1362,0.1384,0.1385,0.1387,0.1388,0.1423,0.1423,0.1423,0.1393,0,0,0.1423,0.1423,0,0,0,0,0,0,0,0,0.1355,0.1354,0.138,0.1381,0.1383,0.1379,0.1372,0.1376,0.1384,0.138,0.1387,0.1389,0.1413,0.1414,0.1404,0.1395,0.1396,0.1423,0.1423,0.1423,0.1423,0,0,0,0,0,0,0,0.1355,0.1355,0.1362,0.138,0.1382,0.1375,0.1376,0.1372,0.1386,0.138,0.1383,0.1388,0.1414,0.1404,0.1405,0.1397,0.1423,0.1423,0.1423,0.1423,0.146,0.1461,0,0,0,0,0,0,0.1363,0.1355,0.1363,0.1363,0.1376,0.1374,0.1375,0.1376,0.1385,0.1389,0.1386,0.1389,0.1403,0.1405,0.1406,0.1468,0.1423,0.1423,0.1423,0.1459,0.146,0.1461,0,0,0,0,0,0,0.1363,0.1364,0.1363,0.1362,0.1362,0.1374,0.1373,0.1375,0.1398,0.139,0.1394,0.1412,0.1404,0.1406,0.1434,0.1466,0.1423,0.1423,0.1458,0.146,0.1461,0.1529,0,0,0,0,0,0,0.1363,0.1364,0.1374,0.1362,0.1363,0.1374,0.1372,0.1374,0.1398,0.1402,0.1413,0.1415,0.1405,0.1434,0.1434,0.1465,0.1423,0.1457,0.1459,0.146,0.1525,0.1532,0.1539,0,0,0,0,0,0.1362,0.1365,0.1374,0.1376,0.1373,0.1375,0.1374,0.1384,0.1398,0.141,0.1422,0.1417,0.1446,0.1434,0.1434,0.1466,0.1456,0.1458,0.146,0.1522,0.1531,0.1538,0,0,0,0,0,0,0.1367,0.1367,0.1377,0.1382,0.1392,0.1381,0.1393,0.1401,0.1416,0.1432,0.1426,0.1429,0.1466,0.1453,0.144,0.1482,0.1451,0.1453,0.1498,0.1506,0.1513,0.1521,0.1423,0,0,0,0,0,0.1372,0.1379,0.138,0.1391,0.1397,0.1402,0.1408,0.1419,0.1427,0.1436,0.1445,0.1455,0.1467,0.1478,0.1482,0.15,0.1499,0.1521,0.1528,0.1533,0.1539,0.1574,0.1585,0.1469,0.1469,0.1469,0,0,0.1379,0.1382,0.1387,0.1394,0.1402,0.1408,0.141,0.1431,0.1446,0.1437,0.1469,0.1481,0.1477,0.1504,0.1519,0.1502,0.1565,0.1536,0.1541,0.1544,0.1578,0.1589,0.1599,0.147,0.147,0.147,0,0,0.1386,0.14,0.1405,0.1415,0.1436,0.1435,0.1451,0.146,0.1479,0.1506,0.1509,0.1544,0.1552,0.1561,0.1564,0.1607,0.16,0.1611,0.1651,0.1686,0.1696,0.1705,0.1714,0.1723,0.1613,0.1613,0.1613,0,0.1395,0.1399,0.141,0.1417,0.1429,0.1452,0.1462,0.1477,0.1498,0.152,0.1531,0.1572,0.1579,0.161,0.1632,0.1624,0.1634,0.1623,0.1696,0.1705,0.1713,0.172,0.173,0.1617,0.1616,0.1616,0.1615,0,0.14,0.1412,0.1419,0.1434,0.1449,0.1467,0.1488,0.1518,0.155,0.1566,0.1623,0.1636,0.1665,0.1675,0.1671,0.1729,0.1715,0.1703,0.1679,0.1729,0.1733,0.1741,0.1622,0.162,0.1619,0.1618,0,0,0.1389,0.1415,0.142,0.1431,0.1463,0.1471,0.1511,0.1544,0.158,0.1622,0.1668,0.1709,0.1737,0.1742,0.1749,0.1782,0.1852,0.1776,0.1776,0.179,0.1921,0.1793,0.179,0.1862,0.1864,0.1866,0.1899,0,0.1389,0.1402,0.1419,0.1443,0.1449,0.1489,0.1522,0.1565,0.1608,0.1659,0.1703,0.1751,0.1754,0.1788,0.1825,0.1852,0.1879,0.1843,0.1865,0.1866,0.175,0.1797,0.1872,0.1905,0.1907,0.1909,0.191,0,0.138,0.139,0.141,0.1446,0.1457,0.1484,0.1548,0.1582,0.1658,0.1699,0.1762,0.1797,0.1867,0.1859,0.1935,0.1917,0.1929,0.1939,0.194,0.1803,0.1754,0.1845,0.1925,0.1924,0.1923,0.1922,0.1921,0,0.1351,0.1381,0.1398,0.1411,0.1457,0.1493,0.1532,0.1604,0.1641,0.1737,0.1784,0.1858,0.1917,0.1952,0.1989,0.1977,0.2055,0.2032,0.1919,0.191,0.1985,0.1975,0.2077,0.2077,0.2076,0.2076,0.2076,0,0.1322,0.1338,0.1394,0.1402,0.1442,0.1489,0.1545,0.1599,0.1679,0.1723,0.1812,0.1856,0.1951,0.2002,0.2012,0.1993,0.2077,0.1932,0.1915,0.201,0.2003,0.199,0.198,0.2078,0.2077,0.2077,0.2077,0,0.1271,0.131,0.1335,0.14,0.1426,0.1461,0.1543,0.1574,0.1674,0.1736,0.1774,0.1887,0.1957,0.2012,0.2075,0.2014,0.2009,0.1975,0.2073,0.206,0.1831,0.1824,0.1847,0.1843,0.184,0.1837,0.1834,0,0.1236,0.1246,0.1325,0.1345,0.1377,0.1436,0.1468,0.1564,0.1591,0.173,0.1744,0.1862,0.192,0.1908,0.1976,0.1976,0.1951,0.1923,0.1875,0.1829,0.1811,0.1809,0.1807,0.1829,0.1828,0.1827,0.1826,0,0.1168,0.1219,0.1242,0.1285,0.1326,0.1354,0.141,0.142,0.1526,0.1635,0.168,0.1717,0.1788,0.1832,0.1851,0.1844,0.1929,0.1886,0.1893,0.1847,0.1807,0.1792,0.1794,0.1814,0.1816,0.1817,0.1818,0,0.1128,0.1132,0.1177,0.1202,0.1249,0.1248,0.1291,0.1322,0.1368,0.1518,0.1532,0.1657,0.1773,0.1763,0.1777,0.1768,0.1735,0.166,0.1678,0.1692,0.1624,0.155,0.1468,0,0,0,0,0,0.108,0.1066,0.1081,0.1098,0.1139,0.1169,0.1232,0.1276,0.1386,0.1377,0.1448,0.1505,0.1547,0.1612,0.1571,0.1694,0.1732,0.1636,0.1653,0.1747,0.1761,0.1695,0,0,0,0,0,0,0.1043,0.1055,0.1047,0.1004,0.1,0.1027,0.1069,0.1143,0.1142,0.1271,0.1309,0.1408,0.1479,0.1565,0.1546,0.156,0.1535,0.1713,0.1708,0.1739,0.1752,0.1763,0.17,0,0,0,0,0]},{"header":{"parameterUnit":"m.s-1","parameterCategory":2,"la1":30.2991,"la2":30.254,"lo1":-89.0895,"lo2":-89.0444,"dy":0.0017,"dx":0.0017,"nx":28,"ny":28,"refTime":"2024-05-20T03:00:00:Z","depth":"4","parameterNumber":3,"parameterNumberName":"V-component_of_CURRENTS"},"data":[0,0,0,0,0,0,0,0,0,0,0,0,0,0,0,0,0,0,0,0,0,0,0,0,0,0,0,0,0,0,0,0,0,0,0,0,0,0,0,0,0,0,0,0,0,0,0,0,0,0,0,0,0,0,0,0,0,0,0.0081,0.0081,0,0.0088,0.0088,0.0088,0.0084,0.0084,0.0084,0.0084,0.0081,0.0081,0.0081,0,0,0,0,0,0,0,0,0,0,0,0,0,0.006,0.0061,0.0081,0.0081,0.0081,0.0088,0.0088,0.0088,0.0084,0.0084,0.0084,0.0084,0.0081,0.0081,0.0081,0,0,0,0,0,0,0,0,0,0,0,0,0,0.0068,0.0061,0.0081,0.008,0.008,0.0088,0.0088,0.0088,0.0084,0.0084,0.0084,0.0083,0.0081,0.0081,0.0081,0.0088,0,0,0.0082,0.0082,0,0,0,0,0,0,0,0,0.0068,0.0069,0.008,0.008,0.008,0.0085,0.0079,0.0087,0.0084,0.0083,0.0084,0.0083,0.0082,0.0082,0.0084,0.0088,0.0087,0.0082,0.0082,0.0082,0.0082,0,0,0,0,0,0,0,0.0067,0.0069,0.0084,0.0081,0.0081,0.0078,0.0079,0.0081,0.0084,0.0083,0.0083,0.0083,0.0082,0.0084,0.0084,0.0087,0.0082,0.0082,0.0082,0.0082,0.0087,0.0087,0,0,0,0,0,0,0.0067,0.0068,0.0084,0.0084,0.0073,0.0078,0.0079,0.0084,0.0084,0.0084,0.0084,0.0083,0.0084,0.0083,0.0084,0.0091,0.0082,0.0082,0.0082,0.0087,0.0087,0.0087,0,0,0,0,0,0,0.0067,0.0069,0.0083,0.0076,0.0078,0.0079,0.0084,0.0084,0.0089,0.0084,0.0084,0.0089,0.0083,0.0083,0.0088,0.0091,0.0082,0.0082,0.0087,0.0087,0.0087,0.0106,0,0,0,0,0,0,0.0066,0.0069,0.0073,0.0076,0.0078,0.0092,0.0084,0.0084,0.009,0.0089,0.0089,0.0088,0.0083,0.0088,0.0088,0.0091,0.0082,0.0087,0.0087,0.0087,0.0105,0.0106,0.0107,0,0,0,0,0,0.0066,0.0076,0.0073,0.0075,0.0083,0.0092,0.0093,0.0093,0.009,0.0096,0.0093,0.0088,0.0088,0.0088,0.0089,0.0091,0.0087,0.0087,0.0087,0.0104,0.0106,0.0107,0,0,0,0,0,0,0.007,0.0077,0.0073,0.0085,0.0088,0.0092,0.0099,0.0097,0.01,0.01,0.0093,0.0093,0.0096,0.0092,0.0092,0.0092,0.0085,0.0085,0.0098,0.0099,0.0101,0.0108,0.0083,0,0,0,0,0,0.0072,0.0083,0.0084,0.0095,0.0097,0.0098,0.0101,0.0102,0.0104,0.0105,0.0104,0.01,0.0096,0.0097,0.0095,0.0099,0.0086,0.0099,0.01,0.0101,0.0107,0.0086,0.0086,0.0087,0.0087,0.0087,0,0,0.0076,0.0082,0.0087,0.0096,0.0099,0.011,0.01,0.011,0.0118,0.0105,0.0116,0.0107,0.0099,0.0101,0.0102,0.0098,0.0093,0.0101,0.0103,0.0108,0.0086,0.0086,0.0086,0.0087,0.0087,0.0087,0,0,0.0094,0.0095,0.011,0.0115,0.0122,0.0123,0.0127,0.0131,0.0132,0.014,0.0128,0.0121,0.0123,0.0114,0.011,0.0118,0.01,0.0114,0.0128,0.0108,0.0107,0.0107,0.0085,0.0082,0.0115,0.0115,0.0115,0,0.0098,0.0116,0.0115,0.013,0.0139,0.0131,0.0148,0.0148,0.0152,0.0155,0.0146,0.0138,0.0129,0.0127,0.0126,0.0121,0.0105,0.0124,0.0109,0.0109,0.0108,0.0085,0.0082,0.0116,0.0116,0.0116,0.0116,0,0.0125,0.0139,0.015,0.0166,0.0174,0.0189,0.0188,0.0193,0.019,0.0187,0.0184,0.0166,0.0163,0.0151,0.0142,0.0132,0.0121,0.0113,0.0106,0.0109,0.0085,0.0081,0.0117,0.0117,0.0117,0.0116,0,0,0.014,0.0164,0.0169,0.0186,0.0196,0.0211,0.022,0.0229,0.0242,0.0226,0.0237,0.0213,0.0199,0.0193,0.0173,0.0149,0.0124,0.013,0.0129,0.011,0.0076,0.0069,0.0064,0.0113,0.0112,0.0112,0.0059,0,0.0163,0.02,0.0205,0.0242,0.0262,0.026,0.0274,0.0278,0.0275,0.0282,0.0249,0.0253,0.0216,0.0217,0.0185,0.0146,0.0117,0.0139,0.0075,0.0073,0.0068,0.0061,0.0111,0.0056,0.0055,0.0055,0.0054,0,0.0189,0.0213,0.0252,0.0288,0.0297,0.0317,0.0343,0.0356,0.0352,0.0347,0.0331,0.031,0.0279,0.0248,0.017,0.0186,0.0134,0.0093,0.009,0.0077,0.006,0.0054,0.0048,0.0048,0.0049,0.0049,0.005,0,0.0209,0.0249,0.0285,0.0296,0.033,0.035,0.037,0.0378,0.0399,0.0395,0.0406,0.0357,0.0346,0.027,0.0183,0.0179,0.0092,0.0079,0.002,0.0018,0.0032,0.0033,0.0021,0.0021,0.0021,0.0021,0.0021,0,0.0233,0.0264,0.03,0.0322,0.0373,0.0385,0.0434,0.0441,0.046,0.049,0.0447,0.045,0.0351,0.029,0.0199,0.0099,0.0104,0.0022,0.0005,0.004,0.0043,0.0029,0.0031,0.0019,0.002,0.002,0.0021,0,0.0247,0.027,0.0317,0.0363,0.0385,0.0423,0.0486,0.0517,0.0528,0.0565,0.057,0.0524,0.0444,0.0334,0.0214,0.0133,0.0033,-0.0006,0.0041,0.0028,-0.0033,-0.003,-0.0073,-0.0074,-0.0074,-0.0075,-0.0075,0,0.0256,0.0282,0.035,0.0386,0.0412,0.0472,0.0514,0.0549,0.0584,0.0607,0.0624,0.0569,0.052,0.0346,0.0222,0.005,0.0021,-0.0034,-0.0039,-0.0031,-0.0043,-0.0039,-0.0035,-0.0076,-0.0076,-0.0076,-0.0077,0,0.0273,0.0299,0.0338,0.0412,0.0468,0.0533,0.0596,0.0627,0.0667,0.0679,0.0672,0.0589,0.0498,0.0353,0.0221,0.0094,0.0,-0.0041,-0.004,-0.0046,-0.0035,-0.0045,-0.0041,-0.0079,-0.0078,-0.0078,-0.0078,0,0.0286,0.0313,0.0369,0.0436,0.0506,0.0573,0.0608,0.0652,0.069,0.0712,0.0707,0.0611,0.0558,0.0376,0.0253,0.013,0.0094,0.0046,0.0041,0.0042,0.0086,0.0118,0.0107,0,0,0,0,0,0.0298,0.0331,0.0389,0.0463,0.0532,0.0576,0.0653,0.068,0.072,0.0722,0.0718,0.0633,0.0463,0.039,0.0266,0.0226,0.0062,0.0075,0.0002,-0.0089,-0.0087,-0.0056,0,0,0,0,0,0,0.0305,0.0356,0.0385,0.0474,0.0525,0.0605,0.0655,0.0683,0.0685,0.0704,0.0617,0.059,0.0422,0.0531,0.0259,0.0223,0.0156,0.0001,-0.0002,-0.0091,-0.0089,-0.0087,-0.0054,0,0,0,0,0]}]]